Flag for U.S.A. Weather past 2 weeks in Palm Springs, California, U.S.A.

Now
80 °F

Sunny.


Feels Like: 79 °F
Forecast: 73 / 92 °F
Wind: 5 mph from North

Location: Palm Springs Regional Airport

Current Time: Oct 24, 2014 at 9:29:32 AM

Latest Report: Oct 24, 2014 at 8:53 AM


Visibility: 10 mi

Pressure: 30.01 "Hg

Humidity: 20%

Dew point: 35 °F

Location of Palm SpringsLocation

Historic Weather in Palm Springs — Graph

°F

Palm Springs temperature yesterday

Maximum temperature yesterday: 94 °F (at 1:53 PM)
Minimum temperature yesterday: 70 °F (at 6:53 AM)
Average temperature yesterday: 82 °F

Past Weeks' High & Low Weather Summary

 TemperatureHumidityPressure
High102 °F (Oct 12, 4:53 PM)68% (Oct 20, 6:53 AM)30.04 "Hg (Oct 20, 6:53 AM)
Low66 °F (Oct 16, 6:53 AM)2% (Oct 12, 4:53 PM)29.72 "Hg (Oct 19, 4:53 PM)
Average81 °F30%29.87 "Hg
* Reported Oct 9 7:53 AM — Oct 24 7:53 AM, Palm Springs, Weather by CustomWeather, © 2014

Note: Actual official high and low records may vary slightly from our data, if they occured in-between our weather recording intervals... More about our weather records

Advertising

Palm Springs weather history for previous 24 hours

 ConditionsComfort  
Time TempWeatherWind HumidityBarometerVisibility
7:53 AM
Oct 24
72 °FClear.6 mph24%29.99 "Hg10 mi
6:53 AM71 °FClear.9 mph25%29.97 "Hg10 mi
5:53 AM74 °FClear.8 mph21%29.95 "Hg10 mi
4:53 AM73 °FClear.8 mph23%29.95 "Hg10 mi
3:53 AM75 °FClear.7 mph22%29.94 "Hg10 mi
2:53 AM72 °FClear.8 mph25%29.95 "Hg10 mi
1:53 AM75 °FClear.9 mph22%29.95 "Hg10 mi
12:53 AM76 °FClear.9 mph22%29.96 "Hg10 mi
11:53 PM
Oct 23
77 °FClear.8 mph21%29.95 "Hg10 mi
10:53 PM79 °FClear.10 mph21%29.96 "Hg10 mi
9:53 PM79 °FClear.8 mph25%29.95 "Hg10 mi
8:53 PM79 °FClear.6 mph28%29.94 "Hg10 mi
7:53 PM82 °FClear.6 mph32%29.93 "Hg10 mi
6:53 PM86 °FSunny.No wind26%29.92 "Hg10 mi
5:53 PM89 °FSunny.5 mph22%29.90 "Hg10 mi
4:53 PM92 °FSunny.6 mph19%29.89 "Hg10 mi
3:53 PM93 °FSunny.8 mph17%29.90 "Hg10 mi
2:53 PM94 °FSunny.No wind15%29.90 "Hg10 mi
1:53 PM94 °FSunny.9 mph13%29.92 "Hg10 mi
12:53 PM93 °FPassing clouds.7 mph13%29.95 "Hg10 mi
11:53 AM91 °FSunny.5 mph17%29.98 "Hg10 mi
10:53 AM90 °FScattered clouds.No wind12%29.99 "Hg10 mi
9:53 AM86 °FScattered clouds.No wind12%30.00 "Hg10 mi
Weather by CustomWeather, © 2014

See weather overviewHow to use our weather pages